Temp
19 19 20 20 21 21 22 23 23 23 24 24 24 24 25 25 25 25 26 26 27 26 25 24 23 25 25 24 25 26 24 26 29 29 28 26 29 29 28 27 26 26 25 24 24
19 19 20 20 21 22 22 23 23 23 24 24 24 24 25 25 25 26 27 26 27 26 24 25 26 26 23 20 24 26 25 29 30 30 29 30 29 29 29 29 27 26 25 24 24
19 19 20 20 21 22 22 23 23 24 24 24 24 25 25 25 26 28 28 27 26 26 23 25 23 22 21 20 24 29 29 31 32 32 31 30 30 30 28 27 26 25 25 24 24
19 20 20 20 21 22 23 23 23 24 24 24 24 24 25 25 26 29 29 27 26 26 23 24 26 25 19 22 24 28 32 32 32 32 31 30 31 30 30 27 26 26 25 25 25
20 20 20 20 21 22 23 23 23 24 24 24 25 25 25 25 27 28 28 27 27 26 24 25 24 22 21 23 27 30 32 33 33 32 32 32 31 30 30 28 27 26 25 25 25
20 20 21 21 22 22 23 23 23 24 24 24 25 25 24 24 28 29 28 28 27 27 25 27 27 28 27 27 29 30 32 32 33 33 32 30 30 31 29 28 27 26 26 26 26
20 20 20 21 22 22 23 23 23 24 24 24 24 25 25 28 29 29 28 28 28 28 28 28 29 28 27 26 28 27 27 29 31 33 31 32 29 29 29 28 27 27 27 27 27
20 21 21 21 22 23 23 24 24 24 24 24 24 24 26 29 29 28 28 27 28 28 29 30 31 30 27 27 24 26 23 21 28 30 32 30 27 29 30 28 27 27 27 27 27
20 21 21 21 22 23 24 24 24 24 24 24 24 24 26 29 29 29 29 29 29 30 30 30 30 28 26 21 20 22 21 22 24 29 32 30 27 29 30 28 27 28 28 28 28
20 21 21 22 22 23 23 24 24 24 24 25 24 23 28 29 30 30 30 29 30 31 31 31 31 24 23 21 22 22 24 23 25 31 31 29 28 29 30 30 29 28 28 28 28
21 21 22 22 23 23 23 24 23 24 24 26 28 29 31 31 31 30 30 30 30 31 28 32 28 25 26 25 27 28 28 26 26 31 29 26 24 25 30 29 28 29 28 28 28
21 21 22 22 23 23 23 23 26 27 27 28 29 28 30 31 31 30 31 30 30 28 30 29 28 31 31 30 29 29 30 29 30 29 26 22 19 21 28 30 29 29 29 28 28
21 21 22 22 23 24 24 26 27 27 27 29 29 29 31 31 31 31 31 31 30 29 30 29 31 34 33 31 30 28 30 30 29 32 27 25 23 24 29 31 30 30 29 29 29
21 22 22 23 23 24 26 27 27 28 24 28 28 30 31 31 31 32 32 31 31 29 30 31 34 34 33 32 32 31 34 33 32 29 26 27 26 25 26 26 29 30 29 30 29
21 22 23 23 24 24 26 27 27 28 23 31 30 32 31 31 32 32 32 32 29 30 32 29 31 33 32 32 33 32 33 33 32 29 29 27 25 26 25 25 25 29 30 30 30
21 22 23 23 24 26 26 27 27 24 25 31 32 31 30 32 32 33 32 32 32 30 30 29 34 33 33 33 33 34 32 31 30 28 27 29 26 24 21 23 22 22 31 31 30
22 23 23 24 25 25 25 26 24 24 32 30 29 31 29 29 30 31 30 29 27 28 26 28 30 31 34 32 31 33 29 24 25 24 25 29 28 24 25 25 21 23 32 32 31
22 23 23 24 24 25 26 24 23 29 31 33 31 30 29 30 30 31 30 28 28 28 27 26 27 30 32 31 30 30 28 24 28 22 27 29 28 27 28 29 28 35 35 34 31
22 23 23 25 24 24 25 22 26 31 33 33 32 30 29 31 31 30 29 28 29 28 26 27 29 32 32 33 31 30 28 29 28 28 26 30 31 30 28 28 32 33 34 34 34
22 22 24 24 24 24 23 22 27 30 32 31 30 31 29 31 30 30 29 31 31 31 30 30 27 32 34 34 33 32 30 26 24 28 29 29 29 29 29 29 30 29 31 32 33
22 22 25 25 25 24 22 25 28 31 32 30 29 29 29 30 31 30 31 32 32 33 30 31 28 29 32 31 29 29 27 29 26 26 25 25 26 32 29 28 28 28 30 31 31
21 22 26 25 24 25 24 27 29 30 31 31 31 30 30 30 29 30 31 31 34 33 31 32 29 26 29 31 31 30 29 26 23 26 25 25 25 32 28 28 29 28 30 29 28
19 23 26 26 22 24 26 28 29 30 31 29 30 31 29 30 27 29 30 32 32 27 26 27 25 25 26 28 29 30 31 33 29 26 27 25 28 30 28 27 29 29 29 28 27
18 22 26 26 26 25 25 27 29 30 30 30 28 28 28 27 28 28 30 31 31 28 29 29 27 26 23 26 28 28 30 31 30 25 26 27 29 29 28 26 27 28 27 26 25
19 22 22 24 25 26 26 27 28 28 29 29 27 27 27 26 27 27 26 29 30 29 30 27 25 27 26 28 29 28 29 30 30 28 28 27 27 28 27 25 27 26 25 25 24
17 18 18 20 25 26 25 26 27 28 27 27 27 27 26 22 22 22 23 24 25 27 29 27 24 26 25 27 28 28 29 29 29 29 28 27 27 28 27 27 25 25 24 23 23
14 16 18 21 23 25 25 26 27 26 27 27 25 24 22 22 23 24 25 26 25 25 24 24 22 21 23 24 24 25 28 27 27 29 27 25 25 24 23 23 23 24 23 23 22
Height
1508 1506 1504 1502 1501 1501 1500 1500 1500 1500 1499 1499 1499 1499 1500 1500 1500 1499 1498 1502 1500 1502 1506 1506 1502 1498 1497 1496 1492 1499 1501 1498 1486 1487 1488 1491 1491 1495 1500 1505 1509 1513 1518 1525 1531
1508 1506 1504 1502 1501 1501 1500 1499 1500 1500 1499 1498 1498 1499 1500 1500 1499 1497 1498 1501 1502 1505 1507 1504 1505 1499 1489 1498 1494 1489 1490 1482 1475 1478 1485 1489 1491 1497 1501 1504 1511 1516 1522 1527 1531
1508 1506 1504 1502 1501 1500 1500 1499 1499 1500 1499 1498 1498 1499 1499 1499 1499 1495 1495 1500 1503 1506 1508 1511 1517 1510 1502 1506 1497 1484 1484 1475 1475 1478 1483 1487 1491 1495 1500 1507 1510 1514 1521 1527 1531
1508 1506 1504 1502 1501 1499 1499 1499 1499 1499 1499 1498 1499 1499 1499 1500 1502 1496 1496 1499 1502 1506 1509 1509 1514 1511 1504 1504 1494 1489 1478 1475 1476 1479 1484 1487 1489 1493 1497 1504 1509 1516 1522 1526 1529
1508 1506 1504 1501 1500 1499 1498 1498 1498 1499 1499 1498 1499 1499 1500 1500 1496 1496 1496 1498 1500 1504 1506 1506 1505 1505 1503 1489 1494 1483 1475 1476 1478 1481 1483 1485 1488 1491 1499 1505 1509 1516 1523 1526 1528
1507 1505 1504 1502 1500 1499 1498 1498 1498 1498 1498 1498 1499 1499 1500 1500 1494 1495 1496 1497 1498 1501 1503 1501 1500 1502 1493 1501 1492 1488 1478 1475 1478 1481 1483 1487 1489 1493 1500 1504 1511 1516 1521 1524 1526
1506 1504 1503 1501 1499 1498 1498 1497 1497 1497 1498 1498 1498 1498 1498 1494 1494 1494 1495 1496 1497 1496 1500 1502 1499 1499 1501 1500 1499 1497 1484 1482 1479 1480 1483 1485 1495 1496 1499 1502 1509 1516 1520 1522 1524
1505 1503 1502 1501 1499 1498 1497 1497 1497 1497 1498 1498 1498 1498 1494 1492 1492 1493 1494 1495 1496 1496 1498 1497 1497 1496 1499 1502 1503 1501 1497 1516 1487 1484 1482 1486 1509 1495 1498 1501 1507 1513 1518 1520 1522
1504 1502 1501 1500 1498 1498 1497 1497 1497 1497 1497 1498 1499 1499 1493 1490 1490 1491 1492 1493 1494 1494 1495 1495 1495 1497 1496 1509 1525 1514 1533 1525 1505 1482 1479 1484 1501 1493 1497 1501 1506 1510 1514 1517 1521
1503 1501 1499 1499 1498 1497 1497 1497 1497 1497 1498 1498 1499 1502 1489 1485 1486 1487 1490 1492 1492 1491 1491 1490 1493 1500 1503 1512 1534 1521 1521 1515 1508 1480 1477 1487 1495 1493 1496 1498 1502 1507 1511 1514 1518
1502 1500 1498 1498 1497 1497 1497 1498 1500 1500 1496 1489 1488 1483 1481 1481 1485 1487 1489 1491 1491 1489 1490 1482 1495 1508 1495 1494 1489 1492 1498 1499 1490 1476 1488 1503 1510 1511 1494 1495 1498 1502 1507 1512 1515
1500 1498 1497 1496 1496 1496 1496 1495 1493 1495 1491 1486 1485 1484 1481 1483 1485 1485 1488 1490 1489 1491 1483 1486 1494 1478 1476 1477 1482 1488 1489 1490 1490 1476 1487 1504 1526 1504 1496 1492 1491 1494 1502 1507 1512
1499 1497 1496 1495 1495 1495 1495 1494 1493 1491 1491 1481 1478 1479 1480 1482 1482 1481 1485 1486 1485 1487 1482 1487 1478 1469 1473 1475 1480 1486 1486 1481 1484 1472 1482 1499 1517 1504 1485 1485 1487 1489 1492 1498 1504
1497 1495 1494 1494 1497 1494 1492 1493 1493 1492 1498 1477 1472 1476 1477 1480 1479 1477 1479 1484 1482 1485 1479 1478 1466 1467 1472 1474 1471 1484 1463 1466 1469 1485 1505 1482 1520 1500 1491 1489 1483 1486 1488 1492 1497
1494 1493 1492 1493 1492 1492 1492 1491 1493 1494 1530 1459 1467 1468 1471 1476 1472 1473 1476 1480 1483 1481 1478 1483 1473 1470 1474 1473 1465 1476 1463 1469 1469 1477 1480 1490 1506 1497 1485 1498 1495 1484 1485 1486 1489
1491 1490 1489 1490 1490 1492 1492 1492 1494 1506 1514 1464 1461 1466 1470 1472 1470 1470 1475 1478 1478 1478 1475 1474 1466 1466 1467 1465 1464 1461 1468 1471 1473 1483 1511 1478 1495 1511 1499 1494 1500 1494 1482 1481 1484
1488 1486 1486 1486 1489 1490 1491 1492 1505 1511 1452 1465 1467 1464 1470 1474 1472 1471 1476 1481 1491 1499 1499 1480 1471 1463 1463 1471 1465 1465 1484 1524 1525 1534 1530 1472 1488 1495 1480 1476 1480 1477 1472 1474 1478
1485 1482 1482 1483 1486 1488 1490 1493 1513 1472 1461 1446 1456 1462 1475 1468 1470 1469 1475 1486 1478 1481 1494 1503 1501 1464 1459 1468 1477 1474 1482 1520 1526 1547 1508 1467 1497 1485 1464 1465 1465 1462 1466 1469 1473
1481 1480 1479 1480 1485 1489 1490 1503 1486 1462 1453 1451 1452 1467 1471 1463 1463 1466 1473 1477 1471 1471 1495 1492 1482 1446 1453 1457 1465 1475 1490 1469 1493 1486 1503 1480 1469 1462 1465 1471 1463 1464 1467 1466 1470
1481 1480 1477 1480 1484 1488 1490 1493 1473 1460 1456 1454 1466 1455 1470 1462 1464 1467 1469 1458 1461 1458 1460 1469 1493 1456 1453 1456 1460 1466 1466 1499 1502 1515 1515 1494 1491 1491 1472 1468 1463 1466 1470 1469 1470
1481 1480 1475 1479 1483 1487 1492 1480 1468 1461 1459 1462 1463 1465 1463 1462 1454 1459 1459 1450 1447 1449 1453 1461 1476 1476 1459 1469 1477 1476 1483 1477 1487 1498 1522 1528 1512 1456 1466 1466 1470 1471 1473 1474 1476
1482 1481 1477 1479 1484 1481 1481 1472 1465 1462 1461 1460 1460 1460 1462 1459 1460 1458 1456 1450 1443 1446 1460 1457 1471 1493 1478 1457 1453 1458 1471 1479 1513 1507 1497 1503 1505 1452 1462 1465 1468 1473 1476 1479 1480
1482 1479 1476 1478 1484 1479 1471 1466 1463 1459 1459 1461 1463 1459 1458 1460 1473 1459 1456 1453 1448 1454 1468 1467 1482 1504 1491 1472 1461 1467 1459 1457 1468 1480 1497 1517 1501 1462 1465 1469 1471 1473 1477 1479 1481
1485 1477 1473 1474 1472 1472 1471 1465 1461 1455 1458 1462 1465 1463 1463 1467 1462 1464 1462 1457 1456 1459 1461 1464 1475 1489 1512 1493 1477 1479 1465 1458 1466 1500 1498 1492 1484 1471 1476 1478 1476 1478 1480 1481 1483
1485 1478 1481 1473 1471 1469 1466 1463 1460 1459 1459 1463 1467 1469 1470 1476 1471 1469 1465 1462 1458 1460 1463 1467 1486 1478 1476 1473 1474 1474 1472 1469 1474 1475 1489 1483 1487 1478 1479 1479 1481 1483 1485 1487 1489
1490 1489 1483 1479 1470 1467 1465 1465 1463 1460 1463 1466 1470 1469 1470 1482 1485 1487 1479 1476 1476 1468 1467 1467 1486 1477 1485 1473 1475 1479 1472 1471 1471 1470 1472 1473 1478 1469 1476 1478 1482 1486 1488 1492 1495
1494 1493 1491 1480 1473 1471 1469 1467 1465 1464 1468 1469 1472 1475 1480 1483 1482 1481 1478 1477 1475 1477 1478 1477 1486 1495 1500 1486 1485 1495 1477 1477 1476 1467 1474 1491 1486 1475 1478 1480 1486 1489 1493 1496 1499
Wind_Speed
11 10 9 7 4 3 3 4 5 5 6 6 6 6 5 5 6 7 6 3 11 9 11 11 6 24 12 15 15 9 4 6 10 10 11 24 12 21 29 31 24 12 31 30 29
11 10 10 8 5 3 3 4 4 5 6 7 6 6 6 6 8 12 5 6 9 6 13 14 15 25 21 13 19 5 1 6 13 10 12 21 24 21 17 18 25 29 31 30 26
11 11 10 8 6 3 2 4 4 5 6 6 6 6 6 6 8 6 7 6 1 8 12 28 10 10 17 12 9 7 3 8 16 23 22 19 22 19 20 17 31 34 33 30 27
11 10 10 8 6 4 2 3 4 5 6 6 6 6 6 5 3 3 5 6 6 10 11 22 7 6 8 6 12 8 7 18 15 26 21 15 22 20 21 29 34 32 31 29 25
11 10 9 8 6 4 3 3 4 5 6 6 5 5 5 4 8 8 6 7 5 10 14 16 26 9 3 7 10 5 10 23 20 20 21 19 14 13 22 34 33 29 27 26 24
12 10 8 7 6 5 3 3 3 4 6 6 5 5 5 5 4 4 7 7 5 6 16 18 12 10 8 13 14 26 13 18 9 13 21 14 15 15 26 31 31 27 27 25 23
11 10 8 6 4 4 3 3 3 4 5 5 5 6 9 14 3 6 8 7 6 5 12 16 12 18 1 1 22 15 16 9 12 7 12 21 8 8 28 31 29 25 25 24 25
11 10 9 6 4 3 3 3 3 4 4 5 4 5 9 4 5 11 7 10 9 11 12 11 9 3 8 21 17 9 11 7 6 8 4 12 7 9 22 33 30 28 25 24 25
12 10 8 6 4 2 2 3 3 3 3 4 2 4 10 9 15 13 13 12 13 13 13 11 5 6 5 7 7 4 4 7 11 11 8 6 9 14 20 29 27 28 26 24 25
12 10 8 5 4 3 3 4 3 3 3 4 5 6 14 14 10 11 11 12 13 15 16 18 10 4 2 4 8 8 7 7 10 7 11 7 5 15 27 27 25 27 25 25 24
12 10 7 5 3 5 5 5 2 3 10 14 10 13 2 9 10 8 11 11 11 14 8 20 5 8 14 12 7 8 10 13 17 12 8 9 13 14 25 27 26 29 27 25 24
12 10 7 5 5 7 10 6 8 15 9 22 19 21 21 5 6 10 11 11 14 9 11 7 7 12 10 6 12 13 16 4 8 4 9 22 6 28 14 23 31 31 32 30 26
13 10 7 5 6 9 11 10 6 8 9 18 28 21 18 6 14 15 16 16 11 9 12 8 8 7 16 11 9 10 10 6 7 5 3 14 10 16 12 19 29 34 38 35 31
13 10 7 5 4 6 8 6 5 8 3 7 14 17 18 15 14 20 20 14 8 9 10 8 15 6 2 7 7 4 2 4 7 12 5 8 4 9 5 5 9 27 35 37 36
14 10 8 8 5 13 7 3 5 6 3 11 14 7 16 18 5 17 23 16 10 10 4 12 10 4 4 8 6 4 6 4 7 8 4 7 5 6 10 4 8 13 33 37 41
14 11 8 11 13 9 3 2 5 2 7 7 9 7 8 14 17 14 7 10 11 8 10 11 20 4 4 5 8 5 7 6 7 3 6 10 7 5 6 11 5 22 30 36 42
15 11 10 13 11 6 5 7 1 4 8 8 7 7 8 9 10 9 8 6 5 2 7 9 14 8 5 4 10 3 4 3 5 6 6 9 5 8 11 21 20 34 30 35 43
14 10 11 15 12 8 4 2 5 9 11 11 11 11 10 9 11 9 8 6 9 9 6 7 8 12 8 7 7 5 6 5 1 5 7 5 6 5 20 31 32 15 11 15 40
10 7 9 12 17 9 3 4 5 4 11 11 13 9 10 10 9 10 11 10 10 11 8 5 7 8 11 6 7 7 4 8 2 6 5 2 6 7 15 11 15 16 13 2 10
7 7 9 7 18 9 2 6 6 14 10 10 6 6 9 13 9 10 10 11 10 12 12 5 5 4 6 5 3 3 4 7 4 1 2 9 4 2 6 9 9 10 19 19 17
7 4 9 16 14 8 4 6 9 18 4 5 8 10 11 7 9 9 8 9 12 10 12 7 4 5 5 4 7 2 4 3 2 3 2 2 5 8 8 11 13 13 26 28 30
4 3 14 16 9 6 7 7 10 20 7 0 5 7 7 10 7 8 6 6 2 7 7 3 1 4 9 7 10 9 9 8 5 6 3 4 5 9 12 12 22 21 25 24 28
8 6 12 16 4 8 12 17 23 18 3 7 6 4 11 4 6 8 6 8 16 7 3 6 3 3 9 8 7 7 7 4 1 2 3 4 3 8 14 13 22 24 23 25 24
5 3 10 15 18 10 11 10 12 7 3 4 6 11 8 8 8 6 3 2 8 6 7 4 2 4 5 6 7 8 14 4 4 3 5 3 2 12 10 9 16 22 27 26 24
3 4 10 2 4 7 8 11 11 2 6 8 5 6 8 5 7 7 10 5 7 9 3 3 4 5 8 8 8 10 12 13 7 7 2 8 9 11 9 10 15 26 28 27 24
9 8 13 16 17 5 5 7 7 5 4 4 2 8 8 9 6 6 9 8 6 7 0 2 3 5 6 10 8 11 10 11 11 10 8 10 6 13 21 28 26 26 27 25 22
16 9 7 12 9 4 5 4 8 8 8 7 10 6 13 10 14 13 16 15 9 6 6 4 3 5 3 10 14 4 5 8 11 7 5 7 4 9 11 18 21 26 25 21 17
Wind_Direction
15 9 5 0 347 301 261 235 244 251 257 259 262 269 276 273 265 257 238 288 302 307 351 27 350 356 324 334 302 261 213 273 114 107 118 158 133 117 136 137 143 144 147 145 145
11 9 5 359 349 320 273 253 235 241 251 262 268 272 275 280 272 252 248 267 294 317 55 18 34 4 321 327 319 287 321 154 121 132 120 146 129 138 130 157 127 131 140 145 149
5 5 5 357 348 334 286 257 247 235 247 255 265 269 285 305 309 265 226 227 207 98 94 75 36 126 267 295 278 232 173 94 117 114 120 116 133 143 134 116 131 135 142 152 157
1 359 360 357 349 331 295 263 247 235 243 252 254 269 286 295 24 302 224 196 159 134 109 87 63 182 216 228 278 252 181 119 124 120 136 148 155 153 149 145 142 143 151 157 167
355 356 356 351 347 332 303 257 241 235 233 244 247 265 281 280 270 300 190 189 169 148 162 178 165 212 269 269 298 255 106 96 101 122 135 149 121 81 133 135 142 146 157 165 173
350 352 353 347 338 327 287 264 240 232 225 229 240 256 264 256 291 277 191 199 210 179 195 188 212 192 281 10 32 334 40 107 113 146 118 112 119 120 130 138 140 153 165 173 177
349 345 346 342 330 312 282 253 245 229 224 228 237 256 259 229 285 294 225 209 192 269 251 249 213 163 144 15 350 12 32 343 156 168 142 145 117 135 143 142 146 161 172 182 178
348 344 340 337 325 298 264 243 226 235 228 227 234 266 260 256 213 252 270 220 255 260 267 295 326 34 73 52 7 360 39 354 302 321 131 115 155 142 159 147 154 168 182 187 177
344 341 337 331 320 277 211 222 214 212 228 219 223 277 268 231 243 221 232 232 241 256 256 257 122 96 124 93 10 14 192 276 297 226 163 127 153 150 166 156 162 171 185 188 178
342 338 333 324 304 227 193 187 213 188 200 222 215 293 247 233 234 214 220 224 254 276 261 239 195 86 67 115 197 192 178 230 262 192 176 131 144 161 164 164 168 175 186 183 181
341 333 323 307 269 224 199 162 206 236 218 208 217 213 227 215 211 198 206 215 250 277 262 271 165 174 214 196 226 230 206 192 229 243 86 77 9 307 175 171 171 177 183 187 190
338 328 314 291 258 228 217 227 270 334 264 247 249 254 269 192 210 228 202 211 225 249 258 279 261 192 201 221 217 230 273 245 292 128 100 96 92 272 231 185 176 175 181 185 192
334 322 306 274 249 239 246 242 358 355 298 280 230 239 224 215 234 216 200 212 250 236 258 257 260 264 185 227 234 248 186 183 181 150 2 125 183 233 220 194 180 179 181 185 188
330 317 297 257 235 213 248 267 332 330 306 257 185 234 220 217 253 245 196 210 240 257 272 263 275 184 271 273 271 336 179 344 260 169 203 165 197 215 223 215 191 177 178 185 187
325 312 283 222 206 218 294 226 274 280 280 145 182 224 202 190 254 219 196 202 250 273 290 271 315 321 196 267 319 256 122 280 298 310 355 239 93 329 76 37 328 197 182 187 189
320 304 267 233 230 192 79 25 292 286 242 178 143 212 168 204 246 167 156 206 248 274 296 281 297 287 331 323 283 343 339 316 277 295 317 202 134 291 143 238 301 317 198 189 188
316 295 246 224 198 198 263 297 257 233 147 153 159 167 202 199 242 159 180 223 208 210 262 290 270 258 192 289 317 247 311 325 2 16 237 280 99 201 178 161 165 223 205 186 186
313 281 245 217 184 141 182 233 247 279 283 167 156 170 192 208 216 203 173 215 215 247 287 214 292 209 208 174 217 254 201 160 353 188 243 261 137 221 192 192 196 160 151 169 178
315 273 260 204 179 166 261 216 224 336 4 345 156 153 201 225 206 199 189 203 210 197 205 317 318 120 155 161 161 286 308 246 351 300 24 36 59 64 199 193 104 85 89 54 187
327 275 252 160 183 172 235 247 271 318 330 354 342 179 200 210 200 182 195 212 228 197 192 258 328 181 138 102 218 203 273 2 344 262 62 52 71 167 92 113 104 67 55 59 64
340 301 153 166 148 202 220 239 264 275 34 3 327 329 330 328 220 190 214 231 191 246 157 192 184 297 83 155 222 288 276 280 142 127 177 116 281 130 164 110 98 86 74 68 68
313 277 170 165 183 214 239 250 264 285 133 46 300 309 297 329 327 360 229 56 3 140 120 51 257 301 239 268 199 195 209 175 125 278 252 149 287 167 109 103 100 91 83 73 73
328 272 174 180 208 230 242 246 256 267 356 21 303 312 332 345 353 5 67 22 42 52 60 340 315 324 323 328 6 250 235 225 202 79 269 95 265 81 85 81 89 86 77 73 70
322 286 174 202 238 281 292 285 256 162 45 327 338 353 346 348 325 304 52 104 63 106 122 82 298 172 213 255 325 338 340 246 116 52 287 218 106 85 58 96 91 88 80 70 55
272 319 7 322 248 257 295 286 322 113 156 84 14 278 285 297 307 325 4 11 149 147 81 112 233 281 299 310 324 322 324 335 339 234 171 274 133 135 146 118 100 94 85 75 62
18 360 337 302 311 309 308 339 317 15 30 127 112 341 29 55 35 358 3 19 46 344 234 289 263 331 308 310 304 292 297 315 315 332 350 343 347 133 114 104 94 89 84 76 62
15 334 320 293 312 316 291 345 351 42 64 34 48 2 50 8 345 326 310 304 304 336 339 28 62 27 328 358 340 357 356 345 338 323 85 48 66 86 75 75 94 89 87 82 69